Weather History for Rochelle, IL

Change the Weather History Date:

Sunday, May 12, 2013

  Actual Average (KRFD) Record (KRFD)
Temperature  
Mean Temperature 45 °F 59 °F  
Max Temperature 55 °F 71 °F 87 °F (2011)
Min Temperature 35 °F 47 °F 29 °F (1981)
Degree Days  
Heating Degree Days 20 7  
Month to date heating degree days 105  
Since 1 July heating degree days 6445  
Cooling Degree Days 0 1  
Month to date cooling degree days 10  
Year to date cooling degree days 18  
Moisture  
Dew Point 26 °F    
Average Humidity 49    
Maximum Humidity 77    
Minimum Humidity 28    
Precipitation  
Precipitation 0.00 in 0.12 in 1.20 in (1912)
Month to date precipitation 1.38  
Year to date precipitation 9.83  
Snow  
Snow 0.00 in 0.00 in 0.00 in ()
Month to date snowfall 0.0  
Since 1 July snowfall 36.7  
Snow Depth -    
Sea Level Pressure  
Sea Level Pressure 30.11 in    
Wind  
Wind Speed 11 mph (WNW)    
Max Wind Speed 22 mph    
Max Gust Speed 28 mph    
Visibility 10 miles    
Events      
T = Trace of Precipitation, MM = Missing Value Source: NWS Daily Summary

Daily Weather History Graph

Daily Weather History Graph

Search for Another Location

Airport:

Trip Planner

Search our weather history database for the weather conditions in past years. The results will help you decide how hot, cold, wet, or windy it might be!

Date:

Astronomy

May. 12, 2013 Rise Set
Actual Time 5:38 AM CDT 8:06 PM CDT
Civil Twilight 5:07 AM CDT 8:38 PM CDT
Nautical Twilight 4:28 AM CDT 9:18 PM CDT
Astronomical Twilight 3:44 AM CDT 10:02 PM CDT
Moon 7:33 AM CDT (5/12) 10:34 PM CDT (5/12)
Length of Visible Light 15h 31m
Length of Day
14h 28m
Waxing Crescent, 7% of the Moon is Illuminated
May 12
Waxing Crescent
May 17
First Quarter
May 24
Full
May 31
Last Quarter
Jun 8
New

Hourly Weather History & Observations

Time (CDT) Temp. Windchill Dew Point Humidity Pressure Visibility Wind Dir Wind Speed Gust Speed Precip Events Conditions
12:15 AM 41.4 °F 36.2 °F 28.8 °F 61% 30.08 in 10.0 mi NW 8.1 mph - N/A   Clear
12:35 AM 41.0 °F 35.2 °F 29.1 °F 63% 30.08 in 10.0 mi NW 9.2 mph - N/A   Clear
12:55 AM 40.5 °F 34.1 °F 27.7 °F 60% 30.08 in 10.0 mi NW 10.4 mph - N/A   Clear
1:15 AM 40.6 °F 34.8 °F 27.3 °F 59% 30.08 in 10.0 mi WNW 9.2 mph - N/A   Clear
1:35 AM 39.6 °F 34.0 °F 28.4 °F 64% 30.08 in 10.0 mi WNW 8.1 mph - N/A   Clear
1:55 AM 39.4 °F 32.7 °F 27.3 °F 62% 30.08 in 10.0 mi WNW 10.4 mph - N/A   Clear
2:15 AM 39.7 °F 32.7 °F 26.6 °F 59% 30.08 in 10.0 mi NW 11.5 mph - N/A   Clear
2:35 AM 39.6 °F 33.5 °F 26.4 °F 59% 30.08 in 10.0 mi WNW 9.2 mph - N/A   Clear
2:55 AM 39.2 °F 32.5 °F 26.8 °F 61% 30.08 in 10.0 mi WNW 10.4 mph - N/A   Clear
3:15 AM 38.8 °F 32.6 °F 26.6 °F 61% 30.08 in 10.0 mi WNW 9.2 mph - N/A   Clear
3:35 AM 38.1 °F 32.3 °F 27.3 °F 65% 30.09 in 10.0 mi WNW 8.1 mph - N/A   Clear
3:55 AM 36.7 °F 29.9 °F 28.4 °F 72% 30.09 in 10.0 mi WNW 9.2 mph - N/A   Clear
4:15 AM 37.6 °F 31.0 °F 27.5 °F 67% 30.09 in 10.0 mi WNW 9.2 mph - N/A   Clear
4:35 AM 35.1 °F 28.6 °F 28.4 °F 77% 30.09 in 10.0 mi WNW 8.1 mph - N/A   Clear
4:55 AM 35.1 °F 28.6 °F 28.4 °F 77% 30.09 in 10.0 mi WNW 8.1 mph - N/A   Clear
5:15 AM 36.5 °F 29.7 °F 27.9 °F 71% 30.10 in 10.0 mi WNW 9.2 mph - N/A   Clear
5:35 AM 36.5 °F 29.7 °F 27.3 °F 69% 30.10 in 10.0 mi NW 9.2 mph - N/A   Clear
5:55 AM 36.7 °F 28.4 °F 26.6 °F 67% 30.11 in 10.0 mi NW 12.7 mph - N/A   Clear
6:15 AM 37.4 °F 31.4 °F 26.6 °F 65% 30.11 in 10.0 mi NW 8.1 mph - N/A   Clear
6:35 AM 37.6 °F 33.1 °F 27.5 °F 67% 30.12 in 10.0 mi NW 5.8 mph - N/A   Clear
7:15 AM 40.1 °F 34.1 °F 27.5 °F 61% 30.12 in 10.0 mi NW 9.2 mph - N/A   Clear
7:35 AM 41.0 °F 34.3 °F 27.7 °F 59% 30.12 in 10.0 mi NW 11.5 mph - N/A   Clear
7:55 AM 41.5 °F 35.4 °F 27.5 °F 57% 30.13 in 10.0 mi NNW 10.4 mph - N/A   Clear
8:15 AM 42.1 °F 33.9 °F 27.0 °F 55% 30.13 in 10.0 mi NNW 17.3 mph - N/A   Clear
8:35 AM 42.8 °F 34.8 °F 27.0 °F 54% 30.13 in 10.0 mi NNW 17.3 mph 23.0 mph N/A   Clear
8:55 AM 43.7 °F 35.0 °F 27.7 °F 53% 30.14 in 10.0 mi NNW 21.9 mph - N/A   Clear
9:15 AM 43.9 °F 36.8 °F 26.2 °F 50% 30.14 in 10.0 mi NNW 15.0 mph 21.9 mph N/A   Clear
9:35 AM 45.1 °F 37.9 °F 26.8 °F 49% 30.14 in 10.0 mi NW 17.3 mph 25.3 mph N/A   Clear
9:55 AM 45.5 °F 38.6 °F 26.6 °F 48% 30.14 in 10.0 mi WNW 16.1 mph 25.3 mph N/A   Scattered Clouds
10:15 AM 45.9 °F 39.1 °F 26.6 °F 47% 30.14 in 10.0 mi WNW 16.1 mph 23.0 mph N/A   Scattered Clouds
10:35 AM 46.4 °F 39.5 °F 27.1 °F 47% 30.15 in 10.0 mi NW 17.3 mph 21.9 mph N/A   Clear
10:55 AM 47.7 °F - 27.9 °F 46% 30.14 in 10.0 mi WNW 13.8 mph 20.7 mph N/A   Clear
11:15 AM 47.8 °F - 27.9 °F 46% 30.14 in 10.0 mi NW 17.3 mph 24.2 mph N/A   Scattered Clouds
11:35 AM 48.2 °F - 26.6 °F 43% 30.14 in 10.0 mi WNW 12.7 mph 21.9 mph N/A   Scattered Clouds
11:55 AM 49.3 °F - 27.9 °F 44% 30.14 in 10.0 mi NNW 10.4 mph 23.0 mph N/A   Scattered Clouds
12:15 PM 50.2 °F - 26.8 °F 40% 30.14 in 10.0 mi NNW 13.8 mph 23.0 mph N/A   Scattered Clouds
12:35 PM 50.5 °F - 25.9 °F 38% 30.14 in 10.0 mi WNW 13.8 mph 25.3 mph N/A   Scattered Clouds
12:55 PM 51.3 °F - 26.2 °F 38% 30.14 in 10.0 mi WNW 16.1 mph 23.0 mph N/A   Scattered Clouds
1:15 PM 51.6 °F - 23.9 °F 34% 30.14 in 10.0 mi WNW 18.4 mph 26.5 mph N/A   Scattered Clouds
1:35 PM 52.0 °F - 24.4 °F 34% 30.13 in 10.0 mi West 17.3 mph 26.5 mph N/A   Scattered Clouds
1:55 PM 52.5 °F - 22.3 °F 31% 30.13 in 10.0 mi NW 11.5 mph 24.2 mph N/A   Clear
2:15 PM 53.6 °F - 22.6 °F 30% 30.12 in 10.0 mi NW 18.4 mph 23.0 mph N/A   Clear
2:35 PM 54.0 °F - 22.6 °F 30% 30.12 in 10.0 mi WNW 16.1 mph 27.6 mph N/A   Clear
2:55 PM 54.0 °F - 21.4 °F 28% 30.11 in 10.0 mi West 16.1 mph 24.2 mph N/A   Clear
3:15 PM 54.1 °F - 22.3 °F 29% 30.11 in 10.0 mi NW 13.8 mph 19.6 mph N/A   Clear
3:35 PM 54.7 °F - 23.0 °F 29% 30.10 in 10.0 mi NW 18.4 mph 21.9 mph N/A   Scattered Clouds
3:55 PM 55.2 °F - 23.4 °F 29% 30.10 in 10.0 mi West 12.7 mph 20.7 mph N/A   Scattered Clouds
4:15 PM 54.5 °F - 22.8 °F 29% 30.09 in 10.0 mi West 16.1 mph 23.0 mph N/A   Scattered Clouds
4:35 PM 55.0 °F - 22.6 °F 28% 30.09 in 10.0 mi WNW 13.8 mph 21.9 mph N/A   Scattered Clouds
4:55 PM 55.2 °F - 23.0 °F 29% 30.09 in 10.0 mi WNW 18.4 mph 24.2 mph N/A   Scattered Clouds
5:15 PM 55.6 °F - 23.0 °F 28% 30.09 in 10.0 mi WNW 12.7 mph 25.3 mph N/A   Scattered Clouds
5:35 PM 55.2 °F - 23.0 °F 29% 30.09 in 10.0 mi NW 15.0 mph 27.6 mph N/A   Scattered Clouds
5:55 PM 54.7 °F - 22.6 °F 29% 30.09 in 10.0 mi NW 13.8 mph - N/A   Clear
6:15 PM 54.5 °F - 22.1 °F 28% 30.08 in 10.0 mi NW 15.0 mph 24.2 mph N/A   Clear
6:35 PM 54.1 °F - 22.1 °F 29% 30.08 in 10.0 mi NW 11.5 mph 20.7 mph N/A   Clear
6:55 PM 53.8 °F - 22.6 °F 30% 30.08 in 10.0 mi WNW 11.5 mph 18.4 mph N/A   Clear
7:15 PM 53.2 °F - 23.5 °F 32% 30.09 in 10.0 mi NW 13.8 mph - N/A   Clear
7:35 PM 52.3 °F - 23.0 °F 32% 30.09 in 10.0 mi WNW 12.7 mph 17.3 mph N/A   Clear
7:55 PM 51.3 °F - 23.5 °F 34% 30.09 in 10.0 mi NW 9.2 mph - N/A   Clear
8:15 PM 50.2 °F - 23.9 °F 36% 30.09 in 10.0 mi WNW 9.2 mph - N/A   Clear
8:35 PM 49.1 °F - 25.0 °F 39% 30.10 in 10.0 mi WNW 8.1 mph - N/A   Clear
8:55 PM 48.2 °F - 25.9 °F 42% 30.10 in 10.0 mi WNW 6.9 mph - N/A   Clear
9:15 PM 45.7 °F 42.7 °F 29.3 °F 53% 30.11 in 10.0 mi WNW 5.8 mph - N/A   Clear
9:35 PM 44.8 °F 42.4 °F 29.5 °F 55% 30.12 in 10.0 mi WNW 4.6 mph - N/A   Clear
9:55 PM 44.6 °F 42.2 °F 29.5 °F 55% 30.12 in 10.0 mi WNW 4.6 mph - N/A   Clear
10:15 PM 43.7 °F 42.1 °F 29.5 °F 57% 30.12 in 10.0 mi West 3.5 mph - N/A   Clear
10:35 PM 42.6 °F 39.9 °F 28.6 °F 58% 30.12 in 10.0 mi West 4.6 mph - N/A   Clear
10:55 PM 40.3 °F 37.1 °F 30.0 °F 67% 30.12 in 10.0 mi West 4.6 mph - N/A   Clear
11:15 PM 39.6 °F 35.4 °F 30.0 °F 69% 30.12 in 10.0 mi West 5.8 mph - N/A   Clear
11:35 PM 40.5 °F 35.8 °F 29.3 °F 64% 30.12 in 10.0 mi West 6.9 mph - N/A   Clear
11:55 PM 39.4 °F 36.1 °F 30.4 °F 70% 30.12 in 10.0 mi West 4.6 mph - N/A   Clear